SCP
0 0 0 0 0 -0 0 0 0 -0 0 -0 0 0 -0 -0 -0 -0 -0 -0 -0 -0 -0 -0 -0 -0 -0 -0 -0 0 -0 -0 0 0 0 0 0 0 0 0 0 0 0 0
0 0 0 0 0 0 0 0 0 0 0 0 0 0 -0 -0 0 -0 -0 -0 -0 -0 -0 -0 -0 -0 -0 -0 -0 -0 -0 0 -0 0 0 0 0 0 0 0 0 0 -0 0
-0 -0 0 0 0 0 0 0 0 0 0 0 0 0 0 -0 -0 -0 -0 -0 -0 -0 -0 -0 -0 -0 0 -0 -0 -0 -0 -0 -0 0 0 1 0 0 0 0 -0 0 -0 -0
-0 0 0 0 0 0 0 0 0 0 0 -0 0 -0 0 -0 -0 -0 -0 -0 -0 -0 -0 -0 -0 -0 -0 0 -0 -0 -0 -0 -0 0 0 1 0 0 0 0 0 -0 -0 -0
0 0 0 0 0 0 0 0 0 0 0 0 0 0 0 -0 -0 0 -0 -0 -0 -0 -0 -0 -0 -0 -0 -0 -0 0 0 -0 -0 -0 1 0 1 0 0 0 0 0 0 0
0 0 0 0 0 0 0 0 0 0 0 0 0 0 0 0 0 0 -0 -0 -0 -0 -0 -0 -0 -0 -0 -0 -0 -0 0 0 -0 -0 0 1 1 1 0 0 0 -0 -0 -0
0 0 0 0 0 0 0 0 0 0 0 0 0 0 0 0 0 0 0 0 -0 -0 -0 -0 -0 -0 -0 -0 -0 0 0 0 0 -0 -0 0 1 1 1 0 0 0 0 0
0 0 0 0 0 0 0 0 0 0 0 0 0 0 0 0 0 0 0 0 -0 -0 -0 -0 -0 -0 -0 -0 -0 0 0 0 0 -0 0 0 0 0 0 0 0 0 0 0
0 0 0 0 0 0 0 0 0 0 0 0 0 0 0 0 0 0 0 0 0 0 0 -0 -0 -0 -0 -0 -0 0 0 0 0 -0 0 1 0 0 -0 0 0 0 0 0
0 0 0 0 0 0 0 0 0 0 0 0 0 0 0 0 0 0 0 0 0 0 0 0 -0 -0 -0 -0 -0 0 0 0 0 0 -0 -0 0 0 0 1 0 0 0 0
0 0 0 0 0 0 0 0 0 0 0 0 0 0 0 0 0 0 0 0 0 0 0 0 -0 -0 -0 -0 -0 -0 0 0 0 0 0 -0 -0 0 0 0 0 0 0 0
0 0 0 0 0 0 0 0 0 0 0 0 0 0 0 0 0 0 0 0 0 0 0 0 0 0 0 -0 -0 -0 0 0 0 0 1 0 0 -0 -0 -0 -0 0 0 -0
0 0 0 0 0 0 0 0 0 0 0 0 0 0 0 0 0 0 0 0 0 0 0 -0 0 0 0 0 0 -0 0 0 0 1 0 0 0 -0 -0 -0 -0 -0 -0 -0
0 0 0 0 0 0 0 0 0 0 0 0 0 0 0 0 0 0 0 0 0 0 0 -0 0 0 0 0 0 1 0 0 1 1 1 0 0 -0 -0 -0 -0 -0 -0 -0
0 0 0 0 0 0 0 0 0 0 0 0 0 0 0 0 0 0 0 0 0 0 0 0 -0 0 0 -0 -0 0 0 1 1 1 1 1 1 0 0 0 -0 -0 -0 -0
0 0 0 0 0 0 0 0 0 0 0 0 0 0 0 0 0 0 0 0 1 1 0 0 0 -0 0 0 0 0 0 1 1 1 1 1 2 1 1 1 1 0 0 -0
0 0 0 0 0 0 0 0 0 0 0 0 0 0 0 0 0 0 0 1 0 1 1 0 0 0 -0 0 0 0 0 1 1 1 2 2 2 2 2 2 2 1 0 0
0 0 0 0 0 0 0 0 0 0 1 1 1 1 1 2 1 1 2 1 1 1 1 0 1 0 0 0 0 0 0 0 0 1 1 2 3 3 3 2 2 2 2 1
0 0 0 0 0 0 0 1 0 0 1 1 1 1 0 1 1 1 1 1 1 0 1 0 0 1 1 0 0 0 0 0 0 0 0 1 2 2 3 3 2 2 2 2
0 0 0 0 0 0 1 0 0 1 1 0 0 0 0 1 1 1 0 1 0 0 -0 0 0 0 1 1 0 0 0 -0 -0 -1 -0 0 1 2 3 3 3 4 4 3
0 0 0 0 0 0 0 0 0 0 0 0 0 0 0 0 0 0 0 0 0 0 -0 0 0 1 1 1 0 0 0 -0 0 0 0 0 1 2 3 4 5 5 5 3
0 0 0 0 0 0 0 0 0 0 0 0 0 0 0 0 0 0 0 0 0 0 0 0 0 1 3 1 1 1 1 1 1 0 1 1 1 2 2 4 5 5 5 5
0 0 0 0 1 0 0 0 0 0 0 0 0 0 0 0 0 0 0 0 0 0 0 0 0 1 1 3 4 1 1 2 2 2 2 3 3 3 3 4 4 5 6 4
0 0 0 0 0 0 0 0 0 0 0 0 0 0 0 0 0 0 0 0 0 0 0 -0 0 0 0 0 2 4 5 2 2 2 3 4 4 3 3 2 3 3 4 4
0 0 0 0 0 0 0 0 0 0 0 0 0 0 0 0 0 0 0 0 0 0 0 -0 0 0 0 0 0 0 1 4 4 3 2 2 2 2 3 3 3 3 3 3
0 0 0 0 0 0 0 0 0 0 0 0 0 0 0 0 0 0 0 0 0 0 0 0 0 0 0 0 0 0 0 0 3 6 2 2 1 1 2 3 4 1 1 1
Wind_Speed_500mb
44 30 37 43 42 41 16 27 28 43 22 47 14 22 34 35 35 38 37 42 44 47 47 46 46 44 45 45 47 42 36 34 34 28 25 23 22 22 19 13 11 11 9 9
41 45 46 41 42 36 20 34 19 10 35 15 20 15 35 31 31 39 40 42 45 48 52 51 50 49 48 48 50 47 40 35 36 30 27 23 23 21 19 14 13 10 12 13
53 50 47 45 44 35 28 35 25 15 16 21 21 13 19 41 32 33 39 41 45 51 56 56 57 55 53 53 54 52 47 40 39 33 28 22 24 20 20 15 10 11 12 14
58 58 49 47 44 42 34 35 34 15 11 20 25 21 29 32 32 33 41 45 49 52 54 59 60 59 57 55 54 52 49 45 42 40 34 35 29 24 21 18 18 10 12 11
61 60 60 49 53 41 40 34 33 27 24 28 26 19 24 30 28 26 38 46 48 51 58 64 66 64 62 59 59 56 54 50 46 49 40 38 33 25 23 21 17 17 12 12
58 66 59 58 48 42 43 34 26 30 29 27 34 21 20 20 26 30 39 44 45 51 57 61 63 63 65 62 62 61 61 58 52 49 53 42 39 30 26 26 18 14 10 8
53 63 58 57 58 40 53 40 24 24 26 29 34 27 27 22 8 6 34 42 43 45 53 60 66 70 69 69 67 64 66 65 56 49 51 46 42 38 30 32 23 18 15 12
47 47 63 54 64 51 51 47 32 40 27 31 38 33 28 13 20 18 15 27 45 49 50 60 69 74 75 73 70 67 69 68 60 55 53 54 49 43 33 34 25 22 17 14
44 55 48 61 52 50 54 45 47 45 43 29 30 43 38 15 18 20 14 19 18 11 35 57 68 75 76 75 74 70 68 70 63 59 57 56 56 52 43 36 38 28 26 18
40 39 59 69 46 50 55 39 43 35 46 44 35 24 18 30 33 32 23 13 10 13 24 45 63 71 73 73 73 70 69 66 64 59 57 59 59 64 52 48 42 38 32 33
40 33 37 46 58 54 42 50 40 41 43 37 34 28 25 17 11 4 23 20 18 13 11 22 50 63 69 70 71 73 73 68 66 64 62 61 58 60 65 48 50 45 40 37
53 15 33 52 36 45 49 56 53 26 44 34 35 27 21 29 26 29 5 9 16 21 17 13 38 56 67 71 71 74 76 75 70 69 69 68 59 57 54 60 49 46 47 45
28 30 30 41 39 39 47 45 48 48 38 45 33 36 19 18 14 19 11 13 16 26 19 7 29 48 61 67 70 72 79 78 73 73 73 64 61 57 59 58 59 52 51 49
10 28 41 27 36 45 43 45 46 50 37 39 37 32 28 23 25 30 10 16 7 21 19 15 19 40 51 62 70 73 75 77 74 71 73 73 68 64 59 61 60 65 61 58
20 32 26 49 9 21 50 44 47 43 44 40 36 42 32 18 3 17 17 9 18 11 21 25 16 31 47 56 65 68 73 76 76 76 76 78 79 69 67 63 64 62 66 64
12 13 8 33 16 18 22 26 53 43 36 35 40 39 21 9 10 9 14 20 27 30 27 28 23 25 40 53 59 67 74 76 80 78 82 81 77 82 80 77 70 71 71 69
11 12 17 28 27 22 25 30 30 20 22 25 34 21 17 14 17 19 15 10 17 21 26 31 27 27 32 44 56 66 71 76 79 84 83 84 82 83 89 88 84 77 79 76
11 15 18 24 22 26 13 6 41 28 22 31 26 31 31 28 28 23 24 18 23 28 28 30 31 29 31 34 47 58 65 75 83 85 88 89 92 92 93 91 91 90 87 86
17 16 17 22 20 19 26 6 1 4 19 25 22 24 28 32 33 16 27 27 29 32 36 33 36 35 34 36 36 53 66 72 83 89 92 91 92 94 94 96 97 94 92 89
18 14 17 22 32 31 26 15 6 7 11 25 27 28 33 36 14 18 46 36 36 33 33 39 41 40 36 33 37 49 66 78 83 89 89 89 89 89 88 92 97 99 96 93
18 17 25 24 21 9 17 12 16 21 10 16 19 24 33 16 20 40 38 34 35 41 40 40 38 35 34 34 39 52 62 78 80 68 72 76 84 86 88 86 84 88 92 82
20 14 16 22 26 19 31 6 9 10 11 11 13 23 33 30 31 32 34 33 37 47 54 44 45 36 40 37 35 43 58 63 59 64 66 72 75 78 74 80 79 78 76 77
8 16 11 14 12 23 32 32 22 15 11 15 18 23 29 29 33 36 34 31 34 41 53 48 42 34 27 6 18 29 36 45 57 55 61 65 66 69 75 67 77 73 74 73
10 10 12 13 18 18 13 25 19 14 13 14 18 23 28 28 32 36 34 31 35 40 43 49 29 25 24 8 5 11 16 27 40 50 54 57 63 63 65 64 60 63 65 66
11 9 10 19 16 2 9 18 13 19 16 18 20 25 29 26 26 35 33 32 31 32 35 45 36 26 23 18 12 16 19 28 31 36 41 49 51 56 57 61 61 58 62 62
10 10 14 3 19 18 11 8 18 23 23 19 23 26 25 23 23 34 34 41 31 28 29 31 39 37 27 17 16 18 23 25 30 29 33 37 42 45 49 52 56 67 63 58
Wind_Direction_500mb
205 222 227 231 225 252 306 277 157 218 345 272 249 80 160 172 179 170 176 178 185 187 186 186 187 184 185 184 180 182 181 182 167 173 166 168 161 156 153 159 141 121 107 91
219 223 226 233 244 235 244 268 192 174 167 284 221 212 152 168 196 175 181 181 187 187 187 189 189 189 191 189 187 185 187 192 174 178 176 172 167 163 163 155 145 143 122 107
223 217 227 233 236 241 225 246 249 261 164 231 280 239 220 165 185 202 190 186 189 190 189 190 192 192 193 192 191 190 191 197 184 185 183 183 171 172 157 173 149 152 140 113
228 232 208 230 230 229 230 228 259 282 219 256 191 255 182 172 180 193 192 191 190 192 194 193 194 194 195 196 193 192 193 198 192 185 189 187 182 178 178 168 168 157 150 132
227 224 231 212 229 226 231 243 223 245 249 263 214 262 172 185 188 193 202 197 195 194 196 196 197 197 196 195 194 192 195 197 197 192 187 197 188 186 178 171 174 157 172 154
239 228 227 231 221 219 235 237 250 251 243 244 247 245 233 188 193 194 185 196 200 198 200 201 200 199 200 197 195 193 198 197 194 204 189 197 199 187 189 180 178 178 178 185
224 235 228 227 235 211 236 221 218 223 225 239 238 223 251 78 105 107 167 185 197 205 203 202 200 200 201 200 199 196 199 203 199 201 203 199 199 194 194 193 181 186 187 193
218 219 228 214 231 211 224 227 225 221 225 229 224 245 224 170 170 193 227 191 189 201 210 207 205 202 202 200 200 199 200 207 201 202 205 209 205 202 197 200 193 196 195 204
214 228 207 232 219 223 220 216 240 247 255 256 223 203 231 163 239 218 158 226 236 279 228 207 206 204 204 202 201 200 202 206 203 206 208 209 211 197 207 209 195 200 197 208
251 248 221 210 212 227 241 212 219 239 249 254 246 235 205 191 216 220 194 209 326 318 285 208 205 203 204 204 203 202 205 209 205 204 208 212 211 211 197 206 222 199 213 195
253 254 228 203 206 208 216 238 226 227 231 246 245 239 217 182 151 160 126 203 337 353 317 232 202 201 201 203 203 204 204 207 207 205 208 209 210 212 208 210 215 208 204 221
231 243 244 193 214 219 235 218 231 227 232 240 253 250 227 201 177 213 110 125 49 334 339 244 205 199 199 203 203 204 205 205 208 208 206 214 212 210 213 210 216 217 213 222
215 226 234 195 202 197 234 216 225 230 234 229 232 235 243 125 133 124 99 191 52 339 343 283 211 205 204 204 204 206 205 207 209 207 209 209 209 210 212 217 216 220 221 222
313 233 243 225 205 206 215 230 218 225 227 235 238 239 230 219 186 139 157 53 319 299 359 296 221 215 212 207 206 206 206 208 208 210 209 210 210 210 213 215 224 224 225 227
240 250 235 240 312 291 199 219 230 225 237 235 232 236 240 248 277 26 42 11 318 319 18 330 258 222 217 214 209 210 210 209 210 210 210 212 212 212 213 219 219 228 229 231
233 235 234 256 199 247 247 223 221 227 230 249 261 265 242 132 80 360 28 351 321 336 16 325 312 248 226 221 218 214 212 211 209 212 211 213 214 214 217 216 221 226 231 234
252 261 209 227 199 215 227 226 243 239 251 234 240 267 344 17 53 27 345 10 355 340 334 313 310 290 249 230 223 220 216 213 213 212 216 215 215 217 221 225 225 225 233 237
228 248 258 239 165 219 220 203 209 212 49 16 31 25 19 360 342 314 49 21 345 332 323 312 307 297 284 250 232 225 220 218 216 217 215 217 215 218 224 226 229 232 235 240
246 244 232 257 232 174 122 74 226 295 80 28 21 18 5 341 301 115 27 3 343 330 319 311 301 298 293 269 244 227 223 221 219 219 219 218 218 219 221 225 230 232 235 237
242 240 271 209 253 228 75 71 47 288 132 25 14 8 4 350 310 48 349 342 340 333 321 318 309 300 290 272 254 236 225 223 224 223 221 220 220 221 221 224 230 235 236 238
209 224 220 230 227 156 22 13 292 223 77 25 5 343 342 346 324 316 329 332 337 336 332 325 317 310 303 282 257 247 233 229 228 228 226 225 223 223 223 224 226 229 234 233
201 200 212 241 242 217 2 87 348 60 45 18 3 352 342 340 333 334 335 337 340 344 342 335 330 333 326 291 263 251 238 234 231 228 228 224 225 223 227 223 225 227 229 232
263 20 353 358 59 87 71 83 93 67 45 8 349 351 343 345 342 339 338 343 345 348 350 338 339 338 320 288 263 257 251 236 228 227 226 225 224 224 222 226 226 226 228 229
241 329 283 312 109 68 53 104 70 62 22 1 346 334 342 351 351 345 340 343 344 348 357 352 340 322 320 317 216 195 244 238 227 226 226 222 221 223 226 221 228 226 226 229
75 283 294 270 246 354 129 55 23 343 343 333 329 331 332 345 354 347 346 343 341 344 6 9 350 350 329 314 282 241 222 205 217 224 224 223 221 222 223 221 219 226 228 226
290 279 263 5 1 330 311 349 328 314 309 314 321 328 333 336 348 351 355 0 354 347 355 21 20 14 5 340 292 259 233 217 212 214 225 222 220 221 222 223 227 222 223 232
Wind_Speed_850mb
44 30 37 43 42 41 16 27 28 43 22 47 14 22 34 35 35 38 37 42 44 47 47 46 46 44 45 45 47 42 36 34 34 28 25 23 22 22 19 13 11 11 9 9
41 45 46 41 42 36 20 34 19 10 35 15 20 15 35 31 31 39 40 42 45 48 52 51 50 49 48 48 50 47 40 35 36 30 27 23 23 21 19 14 13 10 12 13
53 50 47 45 44 35 28 35 25 15 16 21 21 13 19 41 32 33 39 41 45 51 56 56 57 55 53 53 54 52 47 40 39 33 28 22 24 20 20 15 10 11 12 14
58 58 49 47 44 42 34 35 34 15 11 20 25 21 29 32 32 33 41 45 49 52 54 59 60 59 57 55 54 52 49 45 42 40 34 35 29 24 21 18 18 10 12 11
61 60 60 49 53 41 40 34 33 27 24 28 26 19 24 30 28 26 38 46 48 51 58 64 66 64 62 59 59 56 54 50 46 49 40 38 33 25 23 21 17 17 12 12
58 66 59 58 48 42 43 34 26 30 29 27 34 21 20 20 26 30 39 44 45 51 57 61 63 63 65 62 62 61 61 58 52 49 53 42 39 30 26 26 18 14 10 8
53 63 58 57 58 40 53 40 24 24 26 29 34 27 27 22 8 6 34 42 43 45 53 60 66 70 69 69 67 64 66 65 56 49 51 46 42 38 30 32 23 18 15 12
47 47 63 54 64 51 51 47 32 40 27 31 38 33 28 13 20 18 15 27 45 49 50 60 69 74 75 73 70 67 69 68 60 55 53 54 49 43 33 34 25 22 17 14
44 55 48 61 52 50 54 45 47 45 43 29 30 43 38 15 18 20 14 19 18 11 35 57 68 75 76 75 74 70 68 70 63 59 57 56 56 52 43 36 38 28 26 18
40 39 59 69 46 50 55 39 43 35 46 44 35 24 18 30 33 32 23 13 10 13 24 45 63 71 73 73 73 70 69 66 64 59 57 59 59 64 52 48 42 38 32 33
40 33 37 46 58 54 42 50 40 41 43 37 34 28 25 17 11 4 23 20 18 13 11 22 50 63 69 70 71 73 73 68 66 64 62 61 58 60 65 48 50 45 40 37
53 15 33 52 36 45 49 56 53 26 44 34 35 27 21 29 26 29 5 9 16 21 17 13 38 56 67 71 71 74 76 75 70 69 69 68 59 57 54 60 49 46 47 45
28 30 30 41 39 39 47 45 48 48 38 45 33 36 19 18 14 19 11 13 16 26 19 7 29 48 61 67 70 72 79 78 73 73 73 64 61 57 59 58 59 52 51 49
10 28 41 27 36 45 43 45 46 50 37 39 37 32 28 23 25 30 10 16 7 21 19 15 19 40 51 62 70 73 75 77 74 71 73 73 68 64 59 61 60 65 61 58
20 32 26 49 9 21 50 44 47 43 44 40 36 42 32 18 3 17 17 9 18 11 21 25 16 31 47 56 65 68 73 76 76 76 76 78 79 69 67 63 64 62 66 64
12 13 8 33 16 18 22 26 53 43 36 35 40 39 21 9 10 9 14 20 27 30 27 28 23 25 40 53 59 67 74 76 80 78 82 81 77 82 80 77 70 71 71 69
11 12 17 28 27 22 25 30 30 20 22 25 34 21 17 14 17 19 15 10 17 21 26 31 27 27 32 44 56 66 71 76 79 84 83 84 82 83 89 88 84 77 79 76
11 15 18 24 22 26 13 6 41 28 22 31 26 31 31 28 28 23 24 18 23 28 28 30 31 29 31 34 47 58 65 75 83 85 88 89 92 92 93 91 91 90 87 86
17 16 17 22 20 19 26 6 1 4 19 25 22 24 28 32 33 16 27 27 29 32 36 33 36 35 34 36 36 53 66 72 83 89 92 91 92 94 94 96 97 94 92 89
18 14 17 22 32 31 26 15 6 7 11 25 27 28 33 36 14 18 46 36 36 33 33 39 41 40 36 33 37 49 66 78 83 89 89 89 89 89 88 92 97 99 96 93
18 17 25 24 21 9 17 12 16 21 10 16 19 24 33 16 20 40 38 34 35 41 40 40 38 35 34 34 39 52 62 78 80 68 72 76 84 86 88 86 84 88 92 82
20 14 16 22 26 19 31 6 9 10 11 11 13 23 33 30 31 32 34 33 37 47 54 44 45 36 40 37 35 43 58 63 59 64 66 72 75 78 74 80 79 78 76 77
8 16 11 14 12 23 32 32 22 15 11 15 18 23 29 29 33 36 34 31 34 41 53 48 42 34 27 6 18 29 36 45 57 55 61 65 66 69 75 67 77 73 74 73
10 10 12 13 18 18 13 25 19 14 13 14 18 23 28 28 32 36 34 31 35 40 43 49 29 25 24 8 5 11 16 27 40 50 54 57 63 63 65 64 60 63 65 66
11 9 10 19 16 2 9 18 13 19 16 18 20 25 29 26 26 35 33 32 31 32 35 45 36 26 23 18 12 16 19 28 31 36 41 49 51 56 57 61 61 58 62 62
10 10 14 3 19 18 11 8 18 23 23 19 23 26 25 23 23 34 34 41 31 28 29 31 39 37 27 17 16 18 23 25 30 29 33 37 42 45 49 52 56 67 63 58
Wind_Direction_850mb
205 222 227 231 225 252 306 277 157 218 345 272 249 80 160 172 179 170 176 178 185 187 186 186 187 184 185 184 180 182 181 182 167 173 166 168 161 156 153 159 141 121 107 91
219 223 226 233 244 235 244 268 192 174 167 284 221 212 152 168 196 175 181 181 187 187 187 189 189 189 191 189 187 185 187 192 174 178 176 172 167 163 163 155 145 143 122 107
223 217 227 233 236 241 225 246 249 261 164 231 280 239 220 165 185 202 190 186 189 190 189 190 192 192 193 192 191 190 191 197 184 185 183 183 171 172 157 173 149 152 140 113
228 232 208 230 230 229 230 228 259 282 219 256 191 255 182 172 180 193 192 191 190 192 194 193 194 194 195 196 193 192 193 198 192 185 189 187 182 178 178 168 168 157 150 132
227 224 231 212 229 226 231 243 223 245 249 263 214 262 172 185 188 193 202 197 195 194 196 196 197 197 196 195 194 192 195 197 197 192 187 197 188 186 178 171 174 157 172 154
239 228 227 231 221 219 235 237 250 251 243 244 247 245 233 188 193 194 185 196 200 198 200 201 200 199 200 197 195 193 198 197 194 204 189 197 199 187 189 180 178 178 178 185
224 235 228 227 235 211 236 221 218 223 225 239 238 223 251 78 105 107 167 185 197 205 203 202 200 200 201 200 199 196 199 203 199 201 203 199 199 194 194 193 181 186 187 193
218 219 228 214 231 211 224 227 225 221 225 229 224 245 224 170 170 193 227 191 189 201 210 207 205 202 202 200 200 199 200 207 201 202 205 209 205 202 197 200 193 196 195 204
214 228 207 232 219 223 220 216 240 247 255 256 223 203 231 163 239 218 158 226 236 279 228 207 206 204 204 202 201 200 202 206 203 206 208 209 211 197 207 209 195 200 197 208
251 248 221 210 212 227 241 212 219 239 249 254 246 235 205 191 216 220 194 209 326 318 285 208 205 203 204 204 203 202 205 209 205 204 208 212 211 211 197 206 222 199 213 195
253 254 228 203 206 208 216 238 226 227 231 246 245 239 217 182 151 160 126 203 337 353 317 232 202 201 201 203 203 204 204 207 207 205 208 209 210 212 208 210 215 208 204 221
231 243 244 193 214 219 235 218 231 227 232 240 253 250 227 201 177 213 110 125 49 334 339 244 205 199 199 203 203 204 205 205 208 208 206 214 212 210 213 210 216 217 213 222
215 226 234 195 202 197 234 216 225 230 234 229 232 235 243 125 133 124 99 191 52 339 343 283 211 205 204 204 204 206 205 207 209 207 209 209 209 210 212 217 216 220 221 222
313 233 243 225 205 206 215 230 218 225 227 235 238 239 230 219 186 139 157 53 319 299 359 296 221 215 212 207 206 206 206 208 208 210 209 210 210 210 213 215 224 224 225 227
240 250 235 240 312 291 199 219 230 225 237 235 232 236 240 248 277 26 42 11 318 319 18 330 258 222 217 214 209 210 210 209 210 210 210 212 212 212 213 219 219 228 229 231
233 235 234 256 199 247 247 223 221 227 230 249 261 265 242 132 80 360 28 351 321 336 16 325 312 248 226 221 218 214 212 211 209 212 211 213 214 214 217 216 221 226 231 234
252 261 209 227 199 215 227 226 243 239 251 234 240 267 344 17 53 27 345 10 355 340 334 313 310 290 249 230 223 220 216 213 213 212 216 215 215 217 221 225 225 225 233 237
228 248 258 239 165 219 220 203 209 212 49 16 31 25 19 360 342 314 49 21 345 332 323 312 307 297 284 250 232 225 220 218 216 217 215 217 215 218 224 226 229 232 235 240
246 244 232 257 232 174 122 74 226 295 80 28 21 18 5 341 301 115 27 3 343 330 319 311 301 298 293 269 244 227 223 221 219 219 219 218 218 219 221 225 230 232 235 237
242 240 271 209 253 228 75 71 47 288 132 25 14 8 4 350 310 48 349 342 340 333 321 318 309 300 290 272 254 236 225 223 224 223 221 220 220 221 221 224 230 235 236 238
209 224 220 230 227 156 22 13 292 223 77 25 5 343 342 346 324 316 329 332 337 336 332 325 317 310 303 282 257 247 233 229 228 228 226 225 223 223 223 224 226 229 234 233
201 200 212 241 242 217 2 87 348 60 45 18 3 352 342 340 333 334 335 337 340 344 342 335 330 333 326 291 263 251 238 234 231 228 228 224 225 223 227 223 225 227 229 232
263 20 353 358 59 87 71 83 93 67 45 8 349 351 343 345 342 339 338 343 345 348 350 338 339 338 320 288 263 257 251 236 228 227 226 225 224 224 222 226 226 226 228 229
241 329 283 312 109 68 53 104 70 62 22 1 346 334 342 351 351 345 340 343 344 348 357 352 340 322 320 317 216 195 244 238 227 226 226 222 221 223 226 221 228 226 226 229
75 283 294 270 246 354 129 55 23 343 343 333 329 331 332 345 354 347 346 343 341 344 6 9 350 350 329 314 282 241 222 205 217 224 224 223 221 222 223 221 219 226 228 226
290 279 263 5 1 330 311 349 328 314 309 314 321 328 333 336 348 351 355 0 354 347 355 21 20 14 5 340 292 259 233 217 212 214 225 222 220 221 222 223 227 222 223 232